Location: Carrières
(48.9495°N, 2.0407°E)
Time: 17:44:28
(UTC+00:00)

Altair - Pass Details

Date: 24 April 2024
Orbit: 1502 x 1682 km, 47.2° (Epoch: 21 May)

Event Time Altitude Azimuth Distance (km) Brightness Sun altitude
Rises 00:26:36 0° 290° (WNW) 4,838 10.2 -27.6°
Reaches altitude 10° 00:30:10 10° 281° (W) 3,822 9.6 -27.4°
Enters shadow 00:36:24 30° 244° (WSW) 2,537 8.3 -27.2°
